Location: Arboyeti
(42.1122°N, 44.6017°E)
Time: 04:35:35
(UTC+00:00)

Nadezhda 3 Rocket - Pass Details

Date: 19 April 2021
Orbit: 956 x 1000 km, 82.9° (Epoch: 09 May)

Event Time Altitude Azimuth Distance (km) Brightness Sun altitude
Exits shadow 23:31:06 60° 193° (SSW) 1,129 4.0 -26.2°
Maximum altitude 23:32:22 87° 275° (W) 1,004 3.9 -26.1°
Drops below altitude 10° 23:38:45 10° 7° (N) 2,762 7.0 -25.3°
Sets 23:41:16 0° 8° (N) 3,709 7.8 -24.9°
